User: anonymous   Login
Location: Holcomb Observatory
(44.4922°N, 73.1654°W)
Time: 02:48:34
(UTC-04:00)
Language:

SL-16 R/B - Orbit

View from above orbital plane
View from above orbital plane
View from above satellite
View from above satellite

Ground track
Ground track

The orbit data is extracted from the following two-line orbital elements,

1 27006U 01056F   17205.58368201 -.00000052 +00000-0 -95450-5 0  9992
2 27006 099.3193 345.6170 0014228 209.3481 195.5948 13.70969896781534
Epoch (UTC): 24 July 2017 14:00:30
Eccentricity: 0.0014228
inclination: 99.3193°
perigee height: 985 km
apogee height: 1006 km
right ascension of ascending node: 345.6170°
argument of perigee: 209.3481°
revolutions per day: 13.70969896
mean anomaly at epoch: 195.5948°
orbit number at epoch: 78153

The dashed part of the orbit path shows where the satellite is in the earth's shadow,  

DLR